Weather History for Shelby, NC

Change the Weather History Date:

Saturday, October 6, 2012

  Actual Average (KHKY) Record (KHKY)
Temperature  
Mean Temperature 64 °F -  
Max Temperature 77 °F 72 °F 94 °F (1951)
Min Temperature 51 °F 48 °F 35 °F (1964)
Degree Days  
Heating Degree Days 1    
Growing Degree Days 14 (Base 50)    
Moisture  
Dew Point 57 °F    
Average Humidity 80    
Maximum Humidity 100    
Minimum Humidity 41    
Precipitation  
Precipitation 0.27 in - - ()
Sea Level Pressure  
Sea Level Pressure 29.97 in    
Wind  
Wind Speed 2 mph (North)    
Max Wind Speed 13 mph    
Max Gust Speed -    
Visibility 7 miles    
Events Fog , Rain    
Averages and records for this station are not official NWS values.
T = Trace of Precipitation, MM = Missing Value Source: NWS Daily Summary

Daily Weather History Graph

Daily Weather History Graph

Search for Another Location

Airport:

Trip Planner

Search our weather history database for the weather conditions in past years. The results will help you decide how hot, cold, wet, or windy it might be!

Date:

Astronomy

Oct. 06, 2012 Rise Set
Actual Time 7:25 AM EDT 7:02 PM EDT
Civil Twilight 7:00 AM EDT 7:27 PM EDT
Nautical Twilight 6:30 AM EDT 7:57 PM EDT
Astronomical Twilight 6:01 AM EDT 8:26 PM EDT
Moon 11:26 PM EDT (10/6) 1:09 PM EDT (10/6)
Length of Visible Light 12h 27m
Length of Day
11h 37m
Waning Gibbous, 65% of the Moon is Illuminated
Oct 6
Waning Gibbous
Oct 8
Last Quarter
Oct 15
New
Oct 21
First Quarter
Oct 29
Full

Hourly Weather History & Observations

Time (EDT) Temp. Dew Point Humidity Pressure Visibility Wind Dir Wind Speed Gust Speed Precip Events Conditions
2:35 AM 59.0 °F 57.2 °F 94% 30.02 in 7.0 mi Calm Calm - N/A   Clear
2:55 AM 57.2 °F 55.4 °F 94% 30.01 in 5.0 mi Calm Calm - N/A   Clear
3:15 AM 57.2 °F 55.4 °F 94% 30.00 in 2.5 mi Calm Calm - N/A   Clear
3:35 AM 59.0 °F 57.2 °F 94% 29.99 in 5.0 mi Calm Calm - N/A   Clear
3:55 AM 57.2 °F 55.4 °F 94% 29.99 in 0.2 mi Calm Calm - N/A Fog Fog
4:15 AM 57.2 °F 55.4 °F 94% 29.99 in 0.8 mi Calm Calm - N/A   Mist
4:35 AM 57.2 °F 55.4 °F 94% 29.97 in 3.0 mi Calm Calm - N/A   Clear
4:55 AM 55.4 °F 53.6 °F 94% 29.97 in 0.8 mi Calm Calm - N/A   Mist
5:15 AM 53.6 °F 53.6 °F 100% 29.97 in 1.0 mi Calm Calm - N/A   Mist
5:35 AM 55.4 °F 53.6 °F 94% 29.97 in 0.5 mi Calm Calm - N/A Fog Fog
5:55 AM 57.2 °F 55.4 °F 94% 29.97 in 5.0 mi Calm Calm - N/A   Clear
6:15 AM 53.6 °F 51.8 °F 94% 29.99 in 4.0 mi Calm Calm - N/A   Clear
6:35 AM 51.8 °F 51.8 °F 100% 29.99 in 0.5 mi Calm Calm - N/A Fog Fog
6:55 AM 53.6 °F 51.8 °F 94% 29.99 in 0.2 mi Calm Calm - N/A Fog Fog
7:15 AM 51.8 °F 51.8 °F 100% 30.00 in 0.8 mi Calm Calm - N/A   Mostly Cloudy
7:35 AM 53.6 °F 53.6 °F 100% 29.99 in 4.0 mi Calm Calm - N/A   Clear
7:55 AM 51.8 °F 51.8 °F 100% 30.00 in 0.2 mi Calm Calm - N/A Fog Fog
8:15 AM 53.6 °F 51.8 °F 94% 30.01 in 0.5 mi Calm Calm - N/A Fog Fog
8:35 AM 55.4 °F 55.4 °F 100% 30.00 in 4.0 mi Calm Calm - N/A   Clear
8:55 AM 57.2 °F 57.2 °F 100% 30.00 in 5.0 mi Calm Calm - N/A   Clear
9:35 AM 60.8 °F 59.0 °F 94% 30.00 in 10.0 mi Calm Calm - N/A   Clear
10:15 AM 64.4 °F 59.0 °F 83% 29.98 in 10.0 mi SSE 3.5 mph - N/A   Clear
10:35 AM 66.2 °F 59.0 °F 78% 29.98 in 10.0 mi Calm Calm - N/A   Clear
10:55 AM 68.0 °F 59.0 °F 73% 29.97 in 10.0 mi WSW 3.5 mph - N/A   Clear
11:15 AM 69.8 °F 59.0 °F 68% 29.97 in 10.0 mi Calm Calm - N/A   Clear
11:35 AM 69.8 °F 59.0 °F 68% 29.97 in 10.0 mi Calm Calm - N/A   Clear
11:55 AM 71.6 °F 59.0 °F 64% 29.97 in 10.0 mi SW 3.5 mph - N/A   Clear
12:15 PM 73.4 °F 59.0 °F 61% 29.97 in 10.0 mi Calm Calm - N/A   Clear
12:35 PM 77.0 °F 57.2 °F 50% 29.97 in 10.0 mi SSW 3.5 mph - N/A   Clear
12:55 PM 77.0 °F 59.0 °F 54% 29.96 in 10.0 mi SW 5.8 mph - N/A   Clear
1:15 PM 77.0 °F 55.4 °F 47% 29.96 in 10.0 mi West 8.1 mph - N/A   Clear
1:35 PM 77.0 °F 55.4 °F 47% 29.95 in 10.0 mi SSW 5.8 mph - N/A   Scattered Clouds
1:55 PM 77.0 °F 51.8 °F 41% 29.94 in 10.0 mi West 5.8 mph - N/A   Mostly Cloudy
2:35 PM 77.0 °F 53.6 °F 44% 29.93 in 10.0 mi WSW 6.9 mph - N/A   Mostly Cloudy
2:55 PM 77.0 °F 53.6 °F 44% 29.93 in 10.0 mi Calm Calm - N/A   Mostly Cloudy
3:15 PM 77.0 °F 53.6 °F 44% 29.93 in 10.0 mi Calm Calm - N/A   Mostly Cloudy
4:35 PM 77.0 °F 55.4 °F 47% 29.90 in 10.0 mi SSW 3.5 mph - N/A   Scattered Clouds
5:35 PM 77.0 °F 59.0 °F 54% 29.91 in 10.0 mi Calm Calm - N/A   Overcast
5:55 PM 77.0 °F 60.8 °F 57% 29.91 in 10.0 mi Calm Calm - N/A   Overcast
6:15 PM 75.2 °F 60.8 °F 61% 29.91 in 10.0 mi East 3.5 mph - N/A   Overcast
6:35 PM 73.4 °F 60.8 °F 65% 29.92 in 10.0 mi Calm Calm - N/A   Overcast
6:55 PM 71.6 °F 62.6 °F 73% 29.92 in 10.0 mi North 4.6 mph - N/A   Overcast
7:55 PM 68.0 °F 62.6 °F 83% 29.95 in 4.0 mi Calm Calm - 0.05 in Rain Rain
8:15 PM 66.2 °F 62.6 °F 88% 29.94 in 10.0 mi ENE 5.8 mph - N/A   Overcast
8:35 PM 66.2 °F 62.6 °F 88% 29.95 in 5.0 mi NE 4.6 mph - 0.07 in Rain Light Rain
8:55 PM 64.4 °F 62.6 °F 94% 29.95 in 7.0 mi East 9.2 mph - 0.13 in Rain Light Rain
9:15 PM 64.4 °F 62.6 °F 94% 29.94 in 10.0 mi ENE 8.1 mph - 0.04 in   Overcast
9:35 PM 64.4 °F 62.6 °F 94% 29.97 in 10.0 mi WNW 12.7 mph - 0.09 in   Overcast
9:55 PM 66.2 °F 60.8 °F 83% 29.96 in 10.0 mi NNE 9.2 mph - 0.09 in   Overcast
10:15 PM 64.4 °F 60.8 °F 88% 29.97 in 10.0 mi NNE 8.1 mph - N/A   Overcast
10:35 PM 64.4 °F 60.8 °F 88% 29.98 in 10.0 mi North 4.6 mph - N/A   Mostly Cloudy
10:55 PM 62.6 °F 60.8 °F 94% 29.98 in 10.0 mi NNE 4.6 mph - N/A   Scattered Clouds
11:15 PM 62.6 °F 60.8 °F 94% 29.98 in 10.0 mi North 6.9 mph - N/A   Scattered Clouds
11:35 PM 62.6 °F 60.8 °F 94% 29.98 in 7.0 mi NNE 6.9 mph - N/A   Scattered Clouds
11:55 PM 62.6 °F 60.8 °F 94% 29.98 in 7.0 mi NE 5.8 mph - N/A   Scattered Clouds